Погода в Пааме

Вануату     16°28′34″S   168°14′11″E
темп.,
°C
ветер,
м/с
пор.,
м/с
влажн.,
%
обл.,
%
осадки,
мм/ч
давл.,
гПа
погр.,
м
1 августа, вс
вс123:00+24ю776668 0.3 10141092
02:00+24ю765981 0.0 10121394
05:00+24ю765589 0.0 10121471
08:00+23ю665481 0.0 10151539
11:00+24ю6655100 0.0 10141546
14:00+24ю555678 0.0 10121454
17:00+24ю655564 0.0 10121593
20:00+24ю6557100 0.0 10141645
2 августа, пн
пн223:00+24ю6555100 0.0 10141679
02:00+23ю5556100 0.0 10131518
05:00+23ююв6558100 0.1 10131542
08:00+22ююв6667100 0.2 10161008
11:00+23ююв656331 0.3 10151302
14:00+23ю766331 0.1 10131383
17:00+24ююв766496 0.2 10131424
20:00+24ююв6558100 0.2 10151339
3 августа, вт
вт323:00+23ююв5562100 0.3 1016954
02:00+23юв4563100 0.3 10151022
05:00+23юв355472 0.4 10151338
08:00+24юв344849 0.0 10171261
11:00+24ююв567135 0.4 1016901
14:00+24вюв777038 0.4 10131092
17:00+24вюв886874 0.9 10141313
20:00+24вюв986850 0.2 10161268
4 августа, ср
ср423:00+24вюв777032 0.4 10161011
02:00+24вюв776830 0.3 10141100
05:00+24вюв876735 0.5 10141040
08:00+24вюв766537 0.1 10161020
11:00+24вюв666213 0.3 10161165
14:00+24вюв65620 0.0 10131102
17:00+25в54595 0.0 10141118
20:00+25в55605 0.0 10151130
5 августа, чт
чт523:00+25в44625 0.0 10151056
02:00+24всв44650 0.0 1013932
05:00+24в336510 0.0 1013919
08:00+25всв3365100 0.0 1015826
11:00+25всв43655 0.0 1014754
14:00+25св336748 0.0 1011846
17:00+25св446949 0.2 1011783
20:00+25ссз337139 0.4 1014471